Kilmarnock, Virginia, United States (22482)
Lat: 37.71N, Lon: 76.38W
Wx Zone: VAZ078
Local Info
Past Weather Observations for Friday, July 3, 2015

NOTE: This archive is for the closest National Weather Service station to Kilmarnock. Information may differ from the station used for current weather conditions.

Click here for Long-term Archive

Time Weather Temperature Dewpoint Humidity Pressure Winds Precip Visibility
23:55
Clear
68°F / 20°C 66°F / 19°C 94% 29.95 in
(1014 mb)
Calm - 5SM
23:35
Clear
68°F / 20°C 66°F / 19°C 94% 29.95 in
(1014 mb)
Calm - 3SM
23:15
Clear
70°F / 21°C 66°F / 19°C 88% 29.95 in
(1014 mb)
Calm - 5SM
22:55
Clear
70°F / 21°C 66°F / 19°C 88% 29.95 in
(1014 mb)
Calm - 7SM
22:35
Clear
72°F / 22°C 68°F / 20°C 88% 29.92 in
(1013 mb)
Calm - 7SM
22:15
Clear
72°F / 22°C 68°F / 20°C 88% 29.92 in
(1013 mb)
Calm - 7SM
21:55
Clear
72°F / 22°C 68°F / 20°C 88% 29.92 in
(1013 mb)
Calm - 5SM
21:35
Clear
72°F / 22°C 68°F / 20°C 88% 29.92 in
(1013 mb)
Calm - 4SM
21:15
Clear
72°F / 22°C 68°F / 20°C 88% 29.92 in
(1013 mb)
Calm - 3SM
20:55
Clear
72°F / 22°C 68°F / 20°C 88% 29.92 in
(1013 mb)
NNW 3.5 mph
(NNW 6 kph)
- 5SM
20:35
Clear
72°F / 22°C 68°F / 20°C 88% 29.92 in
(1013 mb)
Calm - 5SM
20:15
Clear
72°F / 22°C 68°F / 20°C 88% 29.92 in
(1013 mb)
Calm - 5SM
19:55
Clear
73°F / 23°C 70°F / 21°C 89% 29.92 in
(1013 mb)
Calm - 7SM
19:35
Clear
73°F / 23°C 68°F / 20°C 83% 29.89 in
(1012 mb)
Calm - 7SM
19:15
Clear
73°F / 23°C 68°F / 20°C 83% 29.89 in
(1012 mb)
Calm - 7SM
18:55
Partly Cloudy
75°F / 24°C 68°F / 20°C 78% 29.89 in
(1012 mb)
Calm - 7SM
18:35
Clear
75°F / 24°C 70°F / 21°C 83% 29.89 in
(1012 mb)
N 3.5 mph
(N 6 kph)
- 7SM
18:15
Partly Cloudy
75°F / 24°C 70°F / 21°C 83% 29.89 in
(1012 mb)
Calm - 5SM
17:55
Partly Cloudy
75°F / 24°C 70°F / 21°C 83% 29.89 in
(1012 mb)
Calm - 5SM
17:35
Mostly Cloudy
75°F / 24°C 70°F / 21°C 83% 29.89 in
(1012 mb)
Calm - 5SM
17:15
Mostly Cloudy
75°F / 24°C 70°F / 21°C 83% 29.89 in
(1012 mb)
Calm - 7SM
16:55
Overcast
75°F / 24°C 70°F / 21°C 83% 29.89 in
(1012 mb)
Calm - 5SM
16:35
Overcast
75°F / 24°C 70°F / 21°C 83% 29.89 in
(1012 mb)
NNE 3.5 mph
(NNE 6 kph)
- 7SM
16:15
Overcast
75°F / 24°C 72°F / 22°C 89% 29.89 in
(1012 mb)
NNE 6.9 mph
(NNE 11 kph)
- 7SM
15:55
Mostly Cloudy
77°F / 25°C 73°F / 23°C 89% 29.89 in
(1012 mb)
N 3.5 mph
(N 6 kph)
- 5SM
15:35
Partly Cloudy
77°F / 25°C 73°F / 23°C 89% 29.89 in
(1012 mb)
Calm - 5SM
15:15
Mostly Cloudy
77°F / 25°C 73°F / 23°C 89% 29.89 in
(1012 mb)
NE 3.5 mph
(NE 6 kph)
- 5SM
14:55
Mostly Cloudy
77°F / 25°C 72°F / 22°C 83% 29.86 in
(1011 mb)
Calm 0.06 in
(1.52 mm)
4SM
14:35
Overcast
75°F / 24°C 72°F / 22°C 89% 29.89 in
(1012 mb)
Calm 0.06 in
(1.52 mm)
3SM
14:15
Overcast
77°F / 25°C 70°F / 21°C 79% 29.89 in
(1012 mb)
NNW 6.9 mph
(NNW 11 kph)
0.01 in
(0.25 mm)
4SM
13:55
Overcast
79°F / 26°C 70°F / 21°C 74% 29.89 in
(1012 mb)
NW 5.8 mph
(NW 9 kph)
- 7SM
12:15
Clear
84°F / 29°C 70°F / 21°C 62% 29.86 in
(1011 mb)
SW 5.8 mph
(SW 9 kph)
- 7SM
11:35
Mostly Cloudy
84°F / 29°C 72°F / 22°C 66% 29.89 in
(1012 mb)
SSE 6.9 mph
(SSE 11 kph)
- 7SM
Time Weather Temperature Dewpoint Humidity Pressure Winds Precip Visibility


Weather for websites

WeatherForYou.com, LLC is not responsible for any damages or problems caused by this service. Current weather conditions are obtained from the closest station including government and personal stations which may have varying degrees of accuracy. Weather forecasts are derived from the NOAA NDFD. Like all things, this site belongs to Jesus Christ... He just trusts us to maintain it. If you have any questions or comments email webmaster@weatherforyou.com

Copyright © 2015, WeatherForYou.com LLC. All rights reserved.